Regional Weather Roundup
Issued by NWS

Home | Current Version | Previous Version | Graphics & Text | Print | Product List | Glossary On
Versions: 1 2 3 4 5 6 7 8 9 10 11 12 13 14 15 16 17 18 19 20 21 22 23 24 25 26 27 28 29 30 31 32 33 34 35 36 37 38 39 40 41 42 43 44 45 46 47 48 49 50
000
ASUS44 KMEG 072100
RWRTN
TENNESSEE HOURLY STATE WEATHER ROUNDUP
NATIONAL WEATHER SERVICE MEMPHIS TN
300 PM CST SUN FEB 07 2016

TNZ002-004-019-021-049-052-054-088>092-072200-
WEST TENNESSEE

CITY           SKY/WX    TMP DP  RH WIND       PRES   REMARKS
MEMPHIS INTL   PTSUNNY   57  26  30 SW15G25   30.03F
NWS MEMPHIS      N/A     56 N/A N/A MISG        N/A
JACKSON        SUNNY     57  23  26 SW17G23   30.00F
DYERSBURG      PTSUNNY   57  28  33 SW16G23   30.01F
UNION CITY     SUNNY     55  28  35 SW17      29.97F
$$

TNZ008-025-027-028-033-062-065-066-072200-
NORTH MIDDLE TENNESSEE

CITY           SKY/WX    TMP DP  RH WIND       PRES   REMARKS
NASHVILLE      CLOUDY    57  15  19 S13       30.00F
CLARKSVILLE    MOSUNNY   54  21  27 SW12      29.97F
CROSSVILLE     SUNNY     50  19  29 W9        29.99F
$$

TNZ061-075-076-078-094-096-097-072200-
SOUTH MIDDLE TENNESSEE

CITY           SKY/WX    TMP DP  RH WIND       PRES   REMARKS
TULLAHOMA      SUNNY     54  18  24 W10       30.02F
WINCHESTER     SUNNY     52  21  30 SW7       30.03F
COLUMBIA       SUNNY     57  23  26 SW14      29.99F
SHELBYVILLE    SUNNY     55  25  30 SW13      30.02F
$$

TNZ017-018-042-046-047-072200-
NORTHEAST TENNESSEE

CITY           SKY/WX    TMP DP  RH WIND       PRES   REMARKS
TRI CITIES     MOSUNNY   50  23  34 NW9       29.96F
$$

TNZ012-013-036-069-073-074-072200-
CENTRAL EAST TENNESSEE

CITY           SKY/WX    TMP DP  RH WIND       PRES   REMARKS
KNOXVILLE      MOSUNNY   51  22  31 W3        30.00F
OAK RIDGE      SUNNY     53  22  29 S7        30.00F
$$

TNZ083-085-099-072200-
SOUTHEAST TENNESSEE

CITY           SKY/WX    TMP DP  RH WIND       PRES   REMARKS
CHATTANOOGA    MOSUNNY   55  20  25 CALM      30.01F
$$

SKY/WX REPORTED AS FAIR MEANS FEW OR NO CLOUDS BELOW
12 THOUSAND FEET.




USA.gov is the U.S. government's official web portal to all federal, state and local government web resources and services.